Location: Cogollal
(10.0582°N, 67.8466°W)
Time: 11:54:08
(UTC+00:00)

GPS 2-15 Rocket1 - Pass Details

Date: 14 April 2024
Orbit: 616 x 664 km, 19.8° (Epoch: 24 May)

Event Time Altitude Azimuth Distance (km) Brightness Sun altitude
Exits shadow 09:47:13 10° 277° (W) 2,076 5.1 -9.1°
Reaches altitude 10° 09:47:15 10° 277° (W) 2,069 5.1 -9.1°
Maximum altitude 09:51:51 41° 347° (NNW) 952 4.0 -7.9°
Drops below altitude 10° 09:56:25 10° 58° (ENE) 2,055 7.1 -6.8°
Sets 09:58:54 0° 65° (ENE) 2,960 8.5 -6.2°
